TimeEST,TemperatureF,Dew PointF,Humidity,Sea Level PressureIn,VisibilityMPH,Wind Direction,Wind SpeedMPH,Gust SpeedMPH,PrecipitationIn,Events,Conditions,WindDirDegrees,DateUTC
12:15 AM,34.7,34.2,98,30.15,10.0,West,4.6,-,N/A,,Overcast,260,2013-12-31 05:15:00
12:35 AM,34.3,34.2,99,30.15,10.0,West,5.8,-,N/A,,Overcast,280,2013-12-31 05:35:00
12:55 AM,34.5,34.5,100,30.14,10.0,West,4.6,-,N/A,,Overcast,280,2013-12-31 05:55:00
1:15 AM,34.2,34.2,100,30.15,10.0,West,5.8,-,N/A,,Overcast,260,2013-12-31 06:15:00
1:35 AM,34.2,34.0,99,30.14,10.0,West,5.8,-,N/A,,Overcast,270,2013-12-31 06:35:00
1:55 AM,34.0,34.0,100,30.14,10.0,West,4.6,-,N/A,,Overcast,270,2013-12-31 06:55:00
2:15 AM,33.8,33.8,100,30.14,10.0,WSW,5.8,-,N/A,,Overcast,250,2013-12-31 07:15:00
2:35 AM,33.6,33.6,100,30.15,10.0,West,5.8,-,N/A,,Overcast,270,2013-12-31 07:35:00
2:55 AM,33.4,33.4,100,30.16,10.0,WNW,9.2,-,N/A,,Overcast,290,2013-12-31 07:55:00
3:15 AM,33.6,32.2,94,30.16,10.0,West,8.1,-,N/A,,Overcast,280,2013-12-31 08:15:00
3:35 AM,32.9,32.0,96,30.15,10.0,West,8.1,-,N/A,,Mostly Cloudy,260,2013-12-31 08:35:00
3:55 AM,32.9,32.0,96,30.16,10.0,West,11.5,-,N/A,,Scattered Clouds,260,2013-12-31 08:55:00
4:15 AM,32.9,32.0,96,30.16,10.0,West,10.4,-,N/A,,Overcast,270,2013-12-31 09:15:00
4:35 AM,32.5,31.8,97,30.16,10.0,West,9.2,-,N/A,,Overcast,270,2013-12-31 09:35:00
4:55 AM,32.4,31.5,96,30.16,10.0,West,10.4,-,N/A,,Overcast,260,2013-12-31 09:55:00
5:15 AM,32.0,30.7,95,30.16,10.0,West,9.2,-,N/A,,Overcast,270,2013-12-31 10:15:00
5:35 AM,32.0,30.7,95,30.17,10.0,West,10.4,-,N/A,,Overcast,280,2013-12-31 10:35:00
5:55 AM,32.0,30.2,93,30.18,10.0,West,11.5,-,N/A,,Mostly Cloudy,270,2013-12-31 10:55:00
6:15 AM,31.8,30.2,94,30.20,10.0,West,8.1,-,N/A,,Mostly Cloudy,280,2013-12-31 11:15:00
6:35 AM,31.3,30.2,96,30.20,10.0,West,8.1,-,N/A,,Overcast,270,2013-12-31 11:35:00
6:55 AM,30.9,30.0,96,30.20,10.0,West,5.8,-,N/A,,Mostly Cloudy,270,2013-12-31 11:55:00
7:15 AM,31.1,30.7,99,30.20,10.0,West,9.2,-,N/A,,Mostly Cloudy,260,2013-12-31 12:15:00
7:35 AM,30.9,30.7,99,30.22,10.0,West,10.4,-,N/A,,Overcast,280,2013-12-31 12:35:00
7:55 AM,30.6,30.2,99,30.22,10.0,West,8.1,-,N/A,,Overcast,270,2013-12-31 12:55:00
8:15 AM,30.6,30.2,99,30.23,10.0,WNW,11.5,17.3,N/A,,Overcast,290,2013-12-31 13:15:00
8:35 AM,31.1,30.9,99,30.25,10.0,WNW,9.2,16.1,N/A,,Overcast,290,2013-12-31 13:35:00
8:55 AM,31.6,30.4,95,30.26,10.0,WNW,11.5,17.3,N/A,,Overcast,290,2013-12-31 13:55:00
9:15 AM,32.0,30.2,93,30.27,10.0,West,10.4,17.3,N/A,,Overcast,280,2013-12-31 14:15:00
9:35 AM,32.4,30.2,92,30.28,10.0,West,10.4,-,N/A,,Overcast,270,2013-12-31 14:35:00
9:55 AM,32.7,29.7,88,30.29,10.0,West,11.5,-,N/A,,Mostly Cloudy,270,2013-12-31 14:55:00
10:15 AM,32.0,29.1,89,30.30,10.0,West,13.8,17.3,N/A,,Mostly Cloudy,270,2013-12-31 15:15:00
10:35 AM,32.0,27.7,84,30.31,10.0,West,16.1,20.7,N/A,,Scattered Clouds,280,2013-12-31 15:35:00
10:55 AM,32.2,27.0,81,30.32,10.0,West,13.8,19.6,N/A,,Clear,280,2013-12-31 15:55:00
11:15 AM,33.8,27.1,77,30.32,10.0,West,11.5,18.4,N/A,,Clear,280,2013-12-31 16:15:00
11:35 AM,34.9,27.3,74,30.33,10.0,WNW,10.4,17.3,N/A,,Clear,290,2013-12-31 16:35:00
11:55 AM,34.9,25.7,69,30.32,10.0,West,12.7,20.7,N/A,,Clear,280,2013-12-31 16:55:00
12:15 PM,35.6,26.8,70,30.32,10.0,West,10.4,18.4,N/A,,Scattered Clouds,260,2013-12-31 17:15:00
12:35 PM,36.1,27.0,69,30.32,10.0,West,11.5,-,N/A,,Scattered Clouds,270,2013-12-31 17:35:00
12:55 PM,36.7,26.8,67,30.31,10.0,West,10.4,18.4,N/A,,Mostly Cloudy,270,2013-12-31 17:55:00
1:15 PM,37.2,27.1,67,30.31,10.0,West,10.4,-,N/A,,Scattered Clouds,280,2013-12-31 18:15:00
1:35 PM,37.8,27.5,67,30.30,10.0,West,10.4,16.1,N/A,,Scattered Clouds,280,2013-12-31 18:35:00
1:55 PM,38.3,27.9,66,30.29,10.0,West,9.2,17.3,N/A,,Scattered Clouds,280,2013-12-31 18:55:00
2:15 PM,38.3,27.5,65,30.27,10.0,West,12.7,17.3,N/A,,Scattered Clouds,260,2013-12-31 19:15:00
2:35 PM,38.3,27.5,65,30.27,10.0,WSW,13.8,18.4,N/A,,Clear,250,2013-12-31 19:35:00
2:55 PM,38.8,27.9,65,30.26,10.0,West,11.5,-,N/A,,Clear,270,2013-12-31 19:55:00
3:15 PM,39.2,27.1,62,30.27,10.0,West,9.2,-,N/A,,Clear,280,2013-12-31 20:15:00
3:35 PM,39.2,26.4,60,30.27,10.0,WNW,10.4,16.1,N/A,,Clear,290,2013-12-31 20:35:00
3:55 PM,39.4,26.6,60,30.28,10.0,WNW,9.2,-,N/A,,Clear,290,2013-12-31 20:55:00
4:15 PM,39.0,25.7,59,30.28,10.0,West,9.2,-,N/A,,Clear,280,2013-12-31 21:15:00
4:35 PM,38.3,26.4,62,30.28,10.0,West,8.1,-,N/A,,Clear,260,2013-12-31 21:35:00
4:55 PM,37.6,26.1,63,30.30,10.0,West,9.2,-,N/A,,Clear,270,2013-12-31 21:55:00
5:15 PM,36.3,26.2,67,30.30,10.0,West,5.8,-,N/A,,Clear,260,2013-12-31 22:15:00
5:35 PM,35.1,26.2,70,30.31,10.0,West,5.8,-,N/A,,Clear,260,2013-12-31 22:35:00
5:55 PM,34.2,26.2,73,30.30,10.0,West,5.8,-,N/A,,Clear,260,2013-12-31 22:55:00
6:15 PM,33.4,26.2,75,30.31,10.0,West,4.6,-,N/A,,Clear,260,2013-12-31 23:15:00
6:35 PM,33.1,26.2,76,30.32,10.0,Calm,Calm,-,N/A,,Clear,0,2013-12-31 23:35:00
6:55 PM,32.7,26.1,76,30.31,10.0,West,3.5,-,N/A,,Clear,260,2013-12-31 23:55:00
7:15 PM,32.0,26.8,81,30.32,10.0,West,3.5,-,N/A,,Clear,280,2014-01-01 00:15:00
7:35 PM,32.0,26.2,79,30.32,10.0,West,3.5,-,N/A,,Clear,280,2014-01-01 00:35:00
7:55 PM,32.0,26.1,79,30.33,10.0,West,3.5,-,N/A,,Clear,270,2014-01-01 00:55:00
8:15 PM,31.5,26.2,81,30.33,10.0,West,4.6,-,N/A,,Clear,270,2014-01-01 01:15:00
8:35 PM,30.6,27.0,86,30.33,10.0,West,3.5,-,N/A,,Clear,280,2014-01-01 01:35:00
8:55 PM,31.3,26.4,82,30.33,10.0,West,3.5,-,N/A,,Clear,270,2014-01-01 01:55:00
9:15 PM,30.6,26.1,83,30.34,10.0,West,3.5,-,N/A,,Clear,280,2014-01-01 02:15:00
9:35 PM,30.2,25.9,84,30.34,10.0,Calm,Calm,-,N/A,,Clear,0,2014-01-01 02:35:00
9:55 PM,29.1,25.9,88,30.34,10.0,Calm,Calm,-,N/A,,Clear,0,2014-01-01 02:55:00
10:15 PM,28.8,25.5,88,30.34,10.0,Calm,Calm,-,N/A,,Clear,0,2014-01-01 03:15:00
10:35 PM,28.8,25.5,88,30.34,10.0,Calm,Calm,-,N/A,,Clear,0,2014-01-01 03:35:00
10:55 PM,27.5,25.9,94,30.33,10.0,Calm,Calm,-,N/A,,Clear,0,2014-01-01 03:55:00
11:15 PM,27.1,25.2,92,30.33,10.0,Calm,Calm,-,N/A,,Clear,0,2014-01-01 04:15:00
11:35 PM,27.3,25.3,92,30.33,10.0,Calm,Calm,-,N/A,,Clear,0,2014-01-01 04:35:00
11:55 PM,26.8,25.3,94,30.32,10.0,Calm,Calm,-,N/A,,Clear,0,2014-01-01 04:55:00